Location: Recife
(8.0585°S, 34.8848°W)
Time: 21:01:13
(UTC-03:00)

Vanguard 1 - Pass Details

Date: 21 April 2026
Orbit: 654 x 3817 km, 34.2° (Epoch: 12 May)

Event Time Altitude Azimuth Distance (km) Brightness Sun altitude
Rises 08:54:15 0° 266° (W) 3,749 12.7 49.0°
Reaches altitude 10° 08:58:59 10° 236° (SW) 2,360 11.8 50.0°
Maximum altitude 09:01:01 12° 212° (SSW) 2,081 11.5 50.4°
Drops below altitude 10° 09:02:54 10° 188° (S) 2,130 11.7 50.8°
Sets 09:06:37 0° 155° (SSE) 2,972 12.5 51.6°
